Location: Dammartin
(48.9032°N, 1.6195°E)
Time: 12:04:38
(UTC+00:00)

Cosmos 1763 Rocket - Pass Details

Date: 03 February 2023
Orbit: 733 x 778 km, 74.0° (Epoch: 29 March)

Event Time Altitude Azimuth Distance (km) Brightness Sun altitude
Rises 18:16:38 0° 335° (NNW) 3,228 7.0 -13.8°
Reaches altitude 10° 18:19:02 10° 333° (NNW) 2,291 6.2 -14.2°
Maximum altitude 18:24:11 69° 251° (WSW) 802 3.8 -15.0°
Drops below altitude 10° 18:29:14 10° 169° (SSE) 2,247 5.9 -15.9°
Sets 18:31:34 0° 167° (SSE) 3,160 6.6 -16.2°
